Regional Weather Roundup
Issued by NWS

Home | Current Version | Previous Version | Graphics & Text | Print | Product List | Glossary On
Versions: 1 2 3 4 5 6 7 8 9 10 11 12 13 14 15 16 17 18 19 20 21 22 23 24 25 26 27 28 29 30 31 32 33 34 35 36 37 38 39 40 41 42 43 44 45 46 47 48 49 50
033
ASUS44 KLIX 052310
RWRLA
LOUISIANA WEATHER ROUNDUP
NATIONAL WEATHER SERVICE NEW ORLEANS LA
500 PM CST THU MAR 05 2015

NOTE: "FAIR" INDICATES FEW OR NO CLOUDS BELOW 12,000 FEET WITH NO
      SIGNIFICANT WEATHER AND/OR OBSTRUCTIONS TO VISIBILITY.
      SKY/WX - SKY CONDITION AND SIGNIFICANT WEATHER.
      TMP - AIR TEMPERATURE.    DP   - DEWPOINT TEMPERATURE.
      RH  - RELATIVE HUMIDITY.  PRES - PRESSURE.
      HX  - HEAT INDEX.         WCI  - WIND CHILL INDEX.

*  THESE STATIONS ARE NOT NWS OR FAA STATIONS AND ARE NOT UNDER
   NWS QUALITY CONTROL.

LAZ040-048-061>063-065-066-069-060000-
SOUTHEAST LOUISIANA

CITY           SKY/WX    TMP DP  RH WIND       PRES   REMARKS
N.O. AUDUBON   NOT AVBL
N.O. INTL ARPT CLOUDY    38  31  76 N28       30.32R WCI  26
N.O. LAKEFRONT CLOUDY    41  34  76 N25G35    30.33R
SLIDELL        CLOUDY    36  31  82 N18G26    30.32R WCI  26
BATON ROUGE    PTSUNNY   36  26  67 N12G23    30.40R WCI  28
BOOTHVILLE     CLOUDY    44  38  79 N15G37    30.25R
BELLE CHASSE   CLOUDY    40  31  70 N12G31    30.30R WCI  33
BOGALUSA*        N/A     36  30  81 N12G20    30.38R WCI  27
GALLIANO*      CLOUDY    42  36  78 N18G36    30.28R
NEW ROADS*     MOCLDY    36  24  62 N17G28    30.42R WCI  26
GONZALES*      CLOUDY    36  29  75 N15G23    30.36R WCI  27
HAMMOND*       CLOUDY    36  28  75 N18G28    30.39R WCI  25
HOUMA*         CLOUDY    37  32  81 N17G26    30.30R WCI  28
PORT FOURCHON* CLOUDY    45  37  76 N24G39    30.29R

$$

LAZ041-044-053-054-060000-
SOUTHWEST LOUISIANA

CITY           SKY/WX    TMP DP  RH WIND       PRES   REMARKS
LAKE CHARLES   SUNNY     43  30  60 N17       30.40R
LAFAYETTE      PTSUNNY   38  27  64 N21G31    30.39R WCI  28
PATTERSON      CLOUDY    37  27  65 N22G33    30.34R WCI  27
SALT POINT       N/A     38  29  70 N13G23    30.33R WCI  30
NEW IBERIA     NOT AVBL
CHENAULT AIRPK SUNNY     43  30  61 N17       30.41R

$$

LAZ027-028-060000-
CENTRAL LOUISIANA

CITY           SKY/WX    TMP DP  RH WIND       PRES   REMARKS
FORT POLK      SUNNY     40  22  48 N16G24    30.43R WCI  31
ALEXANDRIA INT SUNNY     40  23  50 N13G21    30.45R WCI  32
ALEXANDRIA     SUNNY     39  22  50 NE9G22    30.46R WCI  33

$$

LAZ001-002-060000-
NORTHWEST LOUISIANA

CITY           SKY/WX    TMP DP  RH WIND       PRES   REMARKS
SHREVEPORT     MOSUNNY   40  22  48 N16       30.51S WCI  31
BARKSDALE AFB  SUNNY     41  21  45 N13       30.51S
DTN SHREVEPORT SUNNY     40  20  44 N9        30.52S WCI  34

$$

LAZ014-016-060000-
NORTHEAST LOUISIANA

CITY           SKY/WX    TMP DP  RH WIND       PRES   REMARKS
MONROE         SUNNY     38  16  40 N22       30.52R WCI  27
TALLULAH       MOSUNNY   34  20  56 N20       30.50S WCI  23

$$




USA.gov is the U.S. government's official web portal to all federal, state and local government web resources and services.